| time (UTC) | temp F | wind direction | speed knots | gust knots | rain 1hr in | rain 24hr in | rain mn in | humidity % | barometer mb |
| 20260504110350 | 40 | 46 | 0.0 | 0.9 | 0.00 | 0.00 | 0.00 | 88 | 1014.8 |
| 20260504100342 | 41 | 46 | 0.0 | 0.9 | 0.00 | 0.00 | 0.00 | 86 | 1015.1 |
| 20260504081652 | 40 | 314 | 0.0 | 1.7 | 0.00 | 0.00 | 0.00 | 84 | 1015.2 |
| 20260504081146 | 40 | 15 | 0.9 | 2.6 | 0.00 | 0.00 | 0.00 | 84 | 1015.1 |
| 20260504080640 | 40 | 314 | 0.9 | 2.6 | 0.00 | 0.00 | 0.00 | 84 | 1015.1 |
| 20260504080133 | 40 | 314 | 0.9 | 3.5 | 0.00 | 0.00 | 0.00 | 83 | 1015.1 |
| 20260504070112 | 42 | 269 | 0.0 | 0.9 | 0.00 | 0.00 | 0.00 | 78 | 1015.1 |
| 20260504060110 | 44 | 269 | 1.7 | 2.6 | 0.00 | 0.00 | 0.00 | 77 | 1015.1 |
| 20260504050513 | 45 | 269 | 0.9 | 2.6 | 0.00 | 0.00 | 0.00 | 75 | 1015.2 |
| 20260504050007 | 45 | 253 | 0.9 | 2.6 | 0.00 | 0.00 | 0.00 | 75 | 1015.2 |
| 20260504045501 | 45 | 1 | 0.9 | 2.6 | 0.00 | 0.00 | 0.00 | 75 | 1015.2 |
| 20260504044955 | 45 | 257 | 0.9 | 2.6 | 0.00 | 0.00 | 0.00 | 75 | 1015.2 |
| 20260504044449 | 45 | 314 | 0.9 | 2.6 | 0.00 | 0.00 | 0.00 | 76 | 1015.2 |
| 20260504043943 | 45 | 269 | 0.9 | 2.6 | 0.00 | 0.00 | 0.00 | 76 | 1015.2 |
| 20260504043654 | 44 | 223 | 0.9 | 2.6 | 0.00 | 0.00 | 0.00 | 76 | 1015.1 |
| 20260504042931 | 44 | 269 | 0.9 | 2.6 | 0.00 | 0.00 | 0.00 | 76 | 1015.1 |
| 20260504042425 | 44 | 269 | 0.9 | 1.7 | 0.00 | 0.00 | 0.00 | 76 | 1015.1 |
| 20260504042145 | 44 | 269 | 0.9 | 1.7 | 0.00 | 0.00 | 0.00 | 76 | 1015.0 |
| 20260504041413 | 44 | 253 | 0.9 | 2.6 | 0.00 | 0.00 | 0.00 | 76 | 1014.8 |
| 20260504040907 | 44 | 250 | 0.9 | 2.6 | 0.00 | 0.00 | 0.00 | 76 | 1014.8 |
| 20260504040401 | 44 | 269 | 0.9 | 2.6 | 0.00 | 0.00 | 0.00 | 76 | 1014.8 |
| 20260504040118 | 44 | 314 | 0.9 | 2.6 | 0.00 | 0.00 | 0.00 | 76 | 1014.8 |
| 20260504035351 | 44 | 1 | 0.9 | 2.6 | 0.00 | 0.00 | 0.00 | 76 | 1014.8 |
| 20260504035108 | 44 | 296 | 0.9 | 1.7 | 0.00 | 0.00 | 0.00 | 76 | 1014.8 |
| 20260504034340 | 44 | 296 | 0.9 | 1.7 | 0.00 | 0.00 | 0.00 | 76 | 1014.8 |
| 20260504033834 | 44 | 1 | 0.9 | 1.7 | 0.00 | 0.00 | 0.00 | 76 | 1014.7 |
| 20260504033329 | 43 | 178 | 0.9 | 1.7 | 0.00 | 0.00 | 0.00 | 77 | 1014.7 |
| 20260504032821 | 43 | 245 | 0.9 | 1.7 | 0.00 | 0.00 | 0.00 | 77 | 1014.6 |
| 20260504032315 | 43 | 296 | 0.9 | 1.7 | 0.00 | 0.00 | 0.00 | 77 | 1014.6 |
| 20260504032029 | 43 | 314 | 0.9 | 1.7 | 0.00 | 0.00 | 0.00 | 77 | 1014.6 |
| 20260504031304 | 43 | 314 | 0.9 | 1.7 | 0.00 | 0.00 | 0.00 | 77 | 1014.6 |
| 20260504031019 | 43 | 269 | 0.0 | 1.7 | 0.00 | 0.00 | 0.00 | 77 | 1014.6 |
| 20260504030256 | 44 | 314 | 0.0 | 1.7 | 0.00 | 0.00 | 0.00 | 76 | 1014.6 |
| 20260504025756 | 44 | 269 | 0.0 | 0.9 | 0.00 | 0.00 | 0.00 | 76 | 1014.5 |
| 20260504025253 | 44 | 1 | 0.0 | 0.9 | 0.00 | 0.00 | 0.00 | 76 | 1014.5 |
| 20260504024751 | 44 | 314 | 0.0 | 0.9 | 0.00 | 0.00 | 0.00 | 75 | 1014.5 |
| 20260504024252 | 44 | 331 | 0.0 | 0.9 | 0.00 | 0.00 | 0.00 | 75 | 1014.5 |
| 20260504023752 | 45 | 46 | 0.0 | 0.9 | 0.00 | 0.00 | 0.00 | 75 | 1014.5 |
| 20260504023512 | 45 | 89 | 0.0 | 0.9 | 0.00 | 0.00 | 0.00 | 75 | 1014.6 |
| 20260504022748 | 45 | 89 | 0.0 | 0.9 | 0.00 | 0.00 | 0.00 | 75 | 1014.5 |
| 20260504022506 | 46 | 269 | 0.0 | 0.9 | 0.00 | 0.00 | 0.00 | 74 | 1014.5 |
| 20260504021748 | 46 | 46 | 0.0 | 0.9 | 0.00 | 0.00 | 0.00 | 74 | 1014.5 |
| 20260504021248 | 46 | 269 | 0.0 | 0.9 | 0.00 | 0.00 | 0.00 | 74 | 1014.5 |
| 20260504020748 | 47 | 46 | 0.0 | 0.9 | 0.00 | 0.00 | 0.00 | 74 | 1014.5 |
| 20260504020247 | 47 | 223 | 0.0 | 1.7 | 0.00 | 0.00 | 0.00 | 74 | 1014.6 |
| 20260504020012 | 47 | 269 | 0.0 | 1.7 | 0.00 | 0.00 | 0.00 | 73 | 1014.5 |
| 20260504015243 | 47 | 1 | 0.0 | 1.7 | 0.00 | 0.00 | 0.00 | 72 | 1014.6 |
| 20260504014743 | 48 | 46 | 0.0 | 0.9 | 0.00 | 0.00 | 0.00 | 71 | 1014.5 |
| 20260504014244 | 48 | 269 | 0.0 | 1.7 | 0.00 | 0.00 | 0.00 | 71 | 1014.5 |
| 20260504014003 | 48 | 46 | 0.0 | 1.7 | 0.00 | 0.00 | 0.00 | 71 | 1014.4 |
| 20260504013244 | 49 | 314 | 0.0 | 0.9 | 0.00 | 0.00 | 0.00 | 70 | 1014.4 |
| 20260504012742 | 49 | 46 | 0.0 | 0.9 | 0.00 | 0.00 | 0.00 | 70 | 1014.3 |
| 20260504012242 | 49 | 269 | 0.0 | 0.9 | 0.00 | 0.00 | 0.00 | 70 | 1014.3 |
| 20260504011739 | 50 | 269 | 0.0 | 1.7 | 0.00 | 0.00 | 0.00 | 70 | 1014.3 |
| 20260504011503 | 50 | 269 | 0.0 | 1.7 | 0.00 | 0.00 | 0.00 | 69 | 1014.2 |
| 20260504010741 | 50 | 314 | 0.0 | 1.7 | 0.00 | 0.00 | 0.00 | 69 | 1014.1 |
| 20260504010239 | 51 | 269 | 0.9 | 1.7 | 0.00 | 0.00 | 0.00 | 68 | 1014.1 |
| 20260504005954 | 51 | 46 | 0.9 | 1.7 | 0.00 | 0.00 | 0.00 | 68 | 1014.0 |
| 20260504005225 | 52 | 258 | 0.9 | 1.7 | 0.00 | 0.00 | 0.00 | 67 | 1013.9 |
| 20260504004719 | 52 | 269 | 0.9 | 1.7 | 0.00 | 0.00 | 0.00 | 65 | 1013.9 |
| 20260504004213 | 53 | 269 | 0.0 | 1.7 | 0.00 | 0.00 | 0.00 | 65 | 1013.9 |
| 20260504003707 | 53 | 1 | 0.0 | 1.7 | 0.00 | 0.00 | 0.00 | 64 | 1013.8 |
| 20260504003201 | 53 | 1 | 0.9 | 1.7 | 0.00 | 0.00 | 0.00 | 63 | 1013.7 |
| 20260504002654 | 54 | 241 | 0.9 | 1.7 | 0.00 | 0.00 | 0.00 | 63 | 1013.7 |
| 20260504002148 | 54 | 241 | 0.0 | 1.7 | 0.00 | 0.00 | 0.00 | 61 | 1013.7 |
| 20260504001643 | 55 | 269 | 0.9 | 1.7 | 0.00 | 0.00 | 0.00 | 61 | 1013.6 |
| 20260504001137 | 55 | 314 | 0.9 | 1.7 | 0.00 | 0.00 | 0.00 | 60 | 1013.5 |
| 20260504000631 | 55 | 303 | 0.9 | 1.7 | 0.00 | 0.00 | 0.00 | 59 | 1013.4 |
| 20260504000125 | 56 | 269 | 0.0 | 1.7 | 0.00 | 0.00 | 0.00 | 59 | 1013.4 |
| 20260503235620 | 56 | 46 | 0.0 | 2.6 | 0.00 | 0.00 | 0.00 | 58 | 1013.4 |
| 20260503235113 | 56 | 46 | 0.9 | 2.6 | 0.00 | 0.00 | 0.00 | 56 | 1013.3 |
| 20260503234654 | 56 | 223 | 0.9 | 3.5 | 0.00 | 0.00 | 0.00 | 56 | 1013.3 |
| 20260503233555 | 57 | 223 | 1.7 | 5.2 | 0.00 | 0.00 | 0.00 | 57 | 1013.2 |
| 20260503233049 | 57 | 144 | 1.7 | 5.2 | 0.00 | 0.00 | 0.00 | 56 | 1013.2 |
| 20260503232542 | 57 | 1 | 1.7 | 5.2 | 0.00 | 0.00 | 0.00 | 56 | 1013.3 |
| 20260503232036 | 58 | 257 | 1.7 | 5.2 | 0.00 | 0.00 | 0.00 | 55 | 1013.2 |
| 20260503231530 | 58 | 89 | 1.7 | 5.2 | 0.00 | 0.00 | 0.00 | 54 | 1013.2 |
| 20260503231025 | 58 | 145 | 2.6 | 6.1 | 0.00 | 0.00 | 0.00 | 53 | 1013.2 |
| 20260503230740 | 58 | 319 | 2.6 | 7.0 | 0.00 | 0.00 | 0.00 | 53 | 1013.2 |
| 20260503230019 | 59 | 20 | 2.6 | 7.8 | 0.00 | 0.00 | 0.00 | 52 | 1013.2 |
| 20260503225519 | 59 | 252 | 2.6 | 8.7 | 0.00 | 0.00 | 0.00 | 53 | 1013.2 |
| 20260503225019 | 59 | 122 | 1.7 | 8.7 | 0.00 | 0.00 | 0.00 | 53 | 1013.1 |
| 20260503224519 | 59 | 269 | 1.7 | 7.0 | 0.00 | 0.00 | 0.00 | 52 | 1013.1 |
| 20260503224019 | 59 | 117 | 1.7 | 6.1 | 0.00 | 0.00 | 0.00 | 54 | 1013.1 |
| 20260503223519 | 59 | 135 | 2.6 | 8.7 | 0.00 | 0.00 | 0.00 | 53 | 1013.1 |
| 20260503223019 | 59 | 76 | 2.6 | 8.7 | 0.00 | 0.00 | 0.00 | 52 | 1013.0 |
| 20260503222518 | 60 | 299 | 2.6 | 7.8 | 0.00 | 0.00 | 0.00 | 52 | 1013.1 |
| 20260503222019 | 60 | 159 | 1.7 | 5.2 | 0.00 | 0.00 | 0.00 | 54 | 1013.1 |
| 20260503221519 | 60 | 89 | 1.7 | 5.2 | 0.00 | 0.00 | 0.00 | 53 | 1013.1 |
| 20260503221018 | 60 | 250 | 2.6 | 9.6 | 0.00 | 0.00 | 0.00 | 51 | 1013.1 |
| 20260503220517 | 61 | 303 | 2.6 | 9.6 | 0.00 | 0.00 | 0.00 | 51 | 1013.2 |
| 20260503220017 | 61 | 219 | 2.6 | 7.0 | 0.00 | 0.00 | 0.00 | 51 | 1013.1 |
| 20260503215517 | 61 | 100 | 3.5 | 10.4 | 0.00 | 0.00 | 0.00 | 52 | 1013.1 |
| 20260503215014 | 61 | 290 | 2.6 | 10.4 | 0.00 | 0.00 | 0.00 | 49 | 1013.1 |
| 20260503214737 | 61 | 113 | 2.6 | 7.8 | 0.00 | 0.00 | 0.00 | 53 | 1013.1 |
| 20260503214015 | 61 | 278 | 3.5 | 11.3 | 0.00 | 0.00 | 0.00 | 51 | 1012.9 |
| 20260503213515 | 61 | 23 | 3.5 | 11.3 | 0.00 | 0.00 | 0.00 | 51 | 1013.1 |
| 20260503213236 | 61 | 98 | 2.6 | 9.6 | 0.00 | 0.00 | 0.00 | 52 | 1013.1 |
| 20260503212514 | 61 | 178 | 2.6 | 7.8 | 0.00 | 0.00 | 0.00 | 53 | 1013.0 |
| 20260503212015 | 61 | 284 | 3.5 | 7.8 | 0.00 | 0.00 | 0.00 | 51 | 1013.0 |
| 20260503211515 | 61 | 206 | 2.6 | 9.6 | 0.00 | 0.00 | 0.00 | 51 | 1013.0 |
| 20260503211014 | 61 | 8 | 2.6 | 10.4 | 0.00 | 0.00 | 0.00 | 57 | 1013.0 |
| 20260503210514 | 61 | 127 | 2.6 | 10.4 | 0.00 | 0.00 | 0.00 | 51 | 1013.1 |
| 20260503210238 | 60 | 237 | 3.5 | 13.0 | 0.00 | 0.00 | 0.00 | 53 | 1013.1 |
| 20260503205515 | 60 | 178 | 4.3 | 13.0 | 0.00 | 0.00 | 0.00 | 51 | 1013.1 |
| 20260503205013 | 60 | 283 | 3.5 | 10.4 | 0.00 | 0.00 | 0.00 | 52 | 1013.0 |
| 20260503204512 | 60 | 245 | 3.5 | 11.3 | 0.00 | 0.00 | 0.00 | 54 | 1013.1 |
| 20260503204013 | 60 | 40 | 4.3 | 13.0 | 0.00 | 0.00 | 0.00 | 52 | 1013.1 |
| 20260503203513 | 61 | 303 | 3.5 | 13.0 | 0.00 | 0.00 | 0.00 | 53 | 1013.1 |
| 20260503203012 | 61 | 276 | 3.5 | 12.2 | 0.00 | 0.00 | 0.00 | 54 | 1013.0 |
| 20260503202512 | 60 | 132 | 3.5 | 11.3 | 0.00 | 0.00 | 0.00 | 55 | 1013.1 |
| 20260503202013 | 60 | 283 | 3.5 | 11.3 | 0.00 | 0.00 | 0.00 | 55 | 1013.2 |
| 20260503201512 | 60 | 11 | 3.5 | 9.6 | 0.00 | 0.00 | 0.00 | 57 | 1013.4 |
| 20260503201231 | 60 | 89 | 3.5 | 10.4 | 0.00 | 0.00 | 0.00 | 55 | 1013.4 |
| 20260503200513 | 60 | 241 | 3.5 | 14.8 | 0.00 | 0.00 | 0.00 | 54 | 1013.4 |
| 20260503200013 | 60 | 54 | 3.5 | 14.8 | 0.00 | 0.00 | 0.00 | 56 | 1013.5 |
| 20260503195512 | 60 | 122 | 3.5 | 14.8 | 0.00 | 0.00 | 0.00 | 57 | 1013.5 |
| 20260503195233 | 60 | 68 | 4.3 | 14.8 | 0.00 | 0.00 | 0.00 | 54 | 1013.5 |
| 20260503194511 | 59 | 336 | 4.3 | 11.3 | 0.00 | 0.00 | 0.00 | 55 | 1013.6 |
| 20260503194005 | 59 | 28 | 3.5 | 10.4 | 0.00 | 0.00 | 0.00 | 54 | 1013.6 |
| 20260503193459 | 60 | 34 | 2.6 | 10.4 | 0.00 | 0.00 | 0.00 | 57 | 1013.6 |
| 20260503192953 | 59 | 286 | 3.5 | 13.0 | 0.00 | 0.00 | 0.00 | 59 | 1013.7 |
| 20260503192448 | 58 | 309 | 4.3 | 13.0 | 0.00 | 0.00 | 0.00 | 59 | 1013.7 |
| 20260503191942 | 58 | 257 | 3.5 | 13.0 | 0.00 | 0.00 | 0.00 | 60 | 1013.8 |
| 20260503191436 | 58 | 175 | 3.5 | 16.5 | 0.00 | 0.00 | 0.00 | 57 | 1014.0 |
| 20260503190930 | 58 | 223 | 3.5 | 16.5 | 0.00 | 0.00 | 0.00 | 54 | 1014.0 |
| 20260503190424 | 58 | 350 | 2.6 | 11.3 | 0.00 | 0.00 | 0.00 | 58 | 1013.9 |
| 20260503190150 | 58 | 81 | 2.6 | 8.7 | 0.00 | 0.00 | 0.00 | 63 | 1013.9 |
| 20260503185645 | 58 | 42 | 3.5 | 8.7 | 0.00 | 0.00 | 0.00 | 56 | 1014.0 |
| 20260503184920 | 58 | 206 | 3.5 | 13.0 | 0.00 | 0.00 | 0.00 | 58 | 1014.1 |
| 20260503184420 | 58 | 162 | 3.5 | 13.0 | 0.00 | 0.00 | 0.00 | 57 | 1014.1 |
| 20260503183920 | 57 | 108 | 4.3 | 13.0 | 0.00 | 0.00 | 0.00 | 64 | 1014.0 |
| 20260503183420 | 56 | 139 | 4.3 | 13.9 | 0.00 | 0.00 | 0.00 | 57 | 1014.2 |
| 20260503183403 | 56 | 72 | 3.5 | 13.9 | 0.00 | 0.00 | 0.00 | 57 | 1014.3 |
| 20260503182421 | 57 | 269 | 3.5 | 11.3 | 0.00 | 0.00 | 0.00 | 59 | 1014.3 |
| 20260503181920 | 57 | 285 | 3.5 | 13.9 | 0.00 | 0.00 | 0.00 | 59 | 1014.1 |
| 20260503181420 | 58 | 76 | 3.5 | 13.9 | 0.00 | 0.00 | 0.00 | 64 | 1014.3 |
| 20260503181147 | 57 | 299 | 3.5 | 11.3 | 0.00 | 0.00 | 0.00 | 57 | 1014.2 |
| 20260503180420 | 56 | 100 | 4.3 | 11.3 | 0.00 | 0.00 | 0.00 | 57 | 1014.4 |
| 20260503175920 | 56 | 281 | 4.3 | 11.3 | 0.00 | 0.00 | 0.00 | 58 | 1014.3 |
| 20260503175420 | 57 | 296 | 3.5 | 11.3 | 0.00 | 0.00 | 0.00 | 58 | 1014.3 |
| 20260503174921 | 56 | 322 | 2.6 | 11.3 | 0.00 | 0.00 | 0.00 | 65 | 1014.4 |
| 20260503174420 | 56 | 235 | 4.3 | 12.2 | 0.00 | 0.00 | 0.00 | 59 | 1014.5 |
| 20260503173920 | 56 | 178 | 4.3 | 12.2 | 0.00 | 0.00 | 0.00 | 67 | 1014.5 |
| 20260503173413 | 56 | 222 | 3.5 | 11.3 | 0.00 | 0.00 | 0.00 | 62 | 1014.5 |
| 20260503172908 | 56 | 25 | 3.5 | 12.2 | 0.00 | 0.00 | 0.00 | 60 | 1014.3 |
| 20260503172402 | 55 | 46 | 3.5 | 12.2 | 0.00 | 0.00 | 0.00 | 61 | 1014.4 |
| 20260503171856 | 55 | 327 | 3.5 | 10.4 | 0.00 | 0.00 | 0.00 | 60 | 1014.5 |
| 20260503171354 | 55 | 220 | 4.3 | 13.9 | 0.00 | 0.00 | 0.00 | 60 | 1014.6 |
| 20260503170853 | 54 | 321 | 3.5 | 13.9 | 0.00 | 0.00 | 0.00 | 63 | 1014.7 |
| 20260503170353 | 54 | 37 | 4.3 | 11.3 | 0.00 | 0.00 | 0.00 | 64 | 1014.7 |
| 20260503150834 | 52 | 338 | 2.6 | 10.4 | 0.00 | 0.00 | 0.00 | 70 | 1015.1 |
| 20260503150546 | 50 | 89 | 2.6 | 7.8 | 0.00 | 0.00 | 0.00 | 70 | 1015.1 |
| 20260503140217 | 49 | 41 | 2.6 | 7.0 | 0.00 | 0.00 | 0.00 | 71 | 1015.2 |
| 20260503131116 | 46 | 245 | 3.5 | 10.4 | 0.00 | 0.00 | 0.00 | 75 | 1015.0 |
| 20260503130833 | 45 | 89 | 3.5 | 9.6 | 0.00 | 0.00 | 0.00 | 74 | 1014.9 |
| 20260503130106 | 45 | 269 | 2.6 | 7.8 | 0.00 | 0.00 | 0.00 | 75 | 1014.9 |